User: anonymous   Login
Location: Unspecified
(0.0000°N, 0.0000°E)
Time: 00:20:18
(UTC+00:00)
Language:

UFO 9 - Orbit

View from above orbital plane
View from above orbital plane
View from above satellite
View from above satellite

Ground track
Ground track

The orbit data is extracted from the following two-line orbital elements,

1 25501U 98058A   17036.30273777 0.00000000  00000-0  00000-0 0    09
2 25501   7.8177  34.5949 0012240 288.4615  71.3999  0.98175024    06
Epoch (UTC): 05 February 2017 07:15:56
Eccentricity: 0.0012240
inclination: 7.8177°
perigee height: 36332 km
apogee height: 36437 km
right ascension of ascending node: 34.5949°
argument of perigee: 288.4615°
revolutions per day: 0.98175024
mean anomaly at epoch: 71.3999°
orbit number at epoch: 0

The dashed part of the orbit path shows where the satellite is in the earth's shadow,  

DLR